Time,TemperatureF,DewpointF,PressureIn,WindDirection,WindDirectionDegrees,WindSpeedMPH,WindSpeedGustMPH,Humidity,HourlyPrecipIn,Conditions,Clouds,dailyrainin,SoftwareType,DateUTC
2013-05-04 00:01:00,66.4,50.7,29.97,ESE,107,2.0,10.0,57,0.00,,---,0.00,VWS V14.01,2013-05-04 04:01:00,
2013-05-04 00:16:00,66.0,50.3,29.98,ESE,105,7.0,8.0,57,0.00,,---,0.00,VWS V14.01,2013-05-04 04:16:00,
2013-05-04 00:31:00,65.8,50.2,29.98,ESE,102,5.0,9.0,57,0.00,,---,0.00,VWS V14.01,2013-05-04 04:31:00,
2013-05-04 00:46:00,65.6,49.5,29.98,ESE,109,2.0,8.0,56,0.00,,---,0.00,VWS V14.01,2013-05-04 04:46:00,
2013-05-04 01:01:00,65.5,49.4,29.98,ESE,111,3.0,10.0,56,0.00,,---,0.00,VWS V14.01,2013-05-04 05:01:00,
2013-05-04 01:16:00,65.2,48.6,29.98,ESE,119,1.0,5.0,55,0.00,,---,0.00,VWS V14.01,2013-05-04 05:16:00,
2013-05-04 01:31:00,65.1,47.6,29.98,ESE,119,3.0,10.0,53,0.00,,---,0.00,VWS V14.01,2013-05-04 05:31:00,
2013-05-04 01:46:00,64.9,46.4,29.98,ESE,114,4.0,8.0,51,0.00,,---,0.00,VWS V14.01,2013-05-04 05:46:00,
2013-05-04 02:01:00,64.3,46.8,29.98,ESE,103,1.0,9.0,53,0.00,,---,0.00,VWS V14.01,2013-05-04 06:01:00,
2013-05-04 02:16:00,63.7,47.2,29.98,East,101,3.0,10.0,55,0.00,,---,0.00,VWS V14.01,2013-05-04 06:16:00,
2013-05-04 02:31:00,63.6,45.7,29.98,ESE,103,3.0,9.0,52,0.00,,---,0.00,VWS V14.01,2013-05-04 06:31:00,
2013-05-04 02:46:00,63.3,45.9,29.98,ESE,109,4.0,8.0,53,0.00,,---,0.00,VWS V14.01,2013-05-04 06:46:00,
2013-05-04 03:01:00,63.2,44.3,29.98,ESE,117,8.0,9.0,50,0.00,,---,0.00,VWS V14.01,2013-05-04 07:01:00,
2013-05-04 03:16:00,63.1,44.2,29.98,ESE,104,2.0,8.0,50,0.00,,---,0.00,VWS V14.01,2013-05-04 07:16:00,
2013-05-04 03:31:00,62.3,45.5,29.98,ESE,116,3.0,8.0,54,0.00,,---,0.00,VWS V14.01,2013-05-04 07:31:00,
2013-05-04 03:46:00,61.7,45.9,29.98,East,97,5.0,8.0,56,0.00,,---,0.00,VWS V14.01,2013-05-04 07:46:00,
2013-05-04 04:01:00,61.5,45.2,29.98,ESE,110,5.0,10.0,55,0.00,,---,0.00,VWS V14.01,2013-05-04 08:01:00,
2013-05-04 04:16:00,61.0,45.2,29.98,East,96,3.0,8.0,56,0.00,,---,0.00,VWS V14.01,2013-05-04 08:16:00,
2013-05-04 04:31:00,60.6,45.3,29.98,ESE,103,2.0,8.0,57,0.00,,---,0.00,VWS V14.01,2013-05-04 08:31:00,
2013-05-04 04:46:00,60.8,44.5,29.98,ESE,115,4.0,10.0,55,0.00,,---,0.00,VWS V14.01,2013-05-04 08:46:00,
2013-05-04 05:01:00,60.9,44.2,29.99,East,87,6.0,12.0,54,0.00,,---,0.00,VWS V14.01,2013-05-04 09:01:00,
2013-05-04 05:16:00,60.9,44.2,29.99,ESE,105,8.0,10.0,54,0.00,,---,0.00,VWS V14.01,2013-05-04 09:16:00,
2013-05-04 05:31:00,60.7,43.5,29.99,East,91,5.0,10.0,53,0.00,,---,0.00,VWS V14.01,2013-05-04 09:31:00,
2013-05-04 05:46:00,60.4,43.2,29.99,ESE,105,5.0,10.0,53,0.00,,---,0.00,VWS V14.01,2013-05-04 09:46:00,
2013-05-04 06:01:00,60.4,43.2,29.99,SE,135,5.0,10.0,53,0.00,,---,0.00,VWS V14.01,2013-05-04 10:01:00,
2013-05-04 06:16:00,60.3,42.6,29.99,ESE,109,4.0,10.0,52,0.00,,---,0.00,VWS V14.01,2013-05-04 10:16:00,
2013-05-04 06:31:00,60.3,42.6,29.99,East,92,6.0,11.0,52,0.00,,---,0.00,VWS V14.01,2013-05-04 10:31:00,
2013-05-04 06:46:00,60.4,42.7,30.00,ESE,118,4.0,12.0,52,0.00,,---,0.00,VWS V14.01,2013-05-04 10:46:00,
2013-05-04 07:01:00,59.9,42.7,30.00,ESE,110,4.0,10.0,53,0.00,,---,0.00,VWS V14.01,2013-05-04 11:01:00,
2013-05-04 07:16:00,59.7,43.5,30.00,ESE,105,5.0,15.0,55,0.00,,---,0.00,VWS V14.01,2013-05-04 11:16:00,
2013-05-04 07:31:00,59.5,43.8,30.00,ESE,107,4.0,11.0,56,0.00,,---,0.00,VWS V14.01,2013-05-04 11:31:00,
2013-05-04 07:46:00,59.5,44.7,30.01,ESE,121,4.0,13.0,58,0.00,,---,0.00,VWS V14.01,2013-05-04 11:46:00,
2013-05-04 08:01:00,59.7,44.9,30.01,ESE,111,11.0,14.0,58,0.00,,---,0.00,VWS V14.01,2013-05-04 12:01:00,
2013-05-04 08:16:00,59.8,45.5,30.01,East,101,3.0,10.0,59,0.00,,---,0.00,VWS V14.01,2013-05-04 12:16:00,
2013-05-04 08:46:00,60.4,46.5,30.01,ESE,110,9.0,11.0,60,0.00,,---,0.00,VWS V14.01,2013-05-04 12:46:00,
2013-05-04 09:01:00,61.3,46.9,30.01,SE,142,6.0,13.0,59,0.00,,---,0.00,VWS V14.01,2013-05-04 13:01:00,
2013-05-04 09:16:00,61.7,47.2,30.01,SE,128,2.0,13.0,59,0.00,,---,0.00,VWS V14.01,2013-05-04 13:16:00,
2013-05-04 09:31:00,62.2,47.7,30.01,East,101,3.0,13.0,59,0.00,,---,0.00,VWS V14.01,2013-05-04 13:31:00,
2013-05-04 09:46:00,62.4,47.9,30.01,SE,142,3.0,17.0,59,0.00,,---,0.00,VWS V14.01,2013-05-04 13:46:00,
2013-05-04 10:01:00,62.5,47.5,30.01,SE,126,4.0,14.0,58,0.00,,---,0.00,VWS V14.01,2013-05-04 14:01:00,
2013-05-04 10:16:00,63.3,47.8,30.01,SE,126,9.0,14.0,57,0.00,,---,0.00,VWS V14.01,2013-05-04 14:16:00,
2013-05-04 10:31:00,64.1,48.1,30.01,SE,134,12.0,12.0,56,0.00,,---,0.00,VWS V14.01,2013-05-04 14:31:00,
2013-05-04 10:46:00,64.0,48.9,30.02,ESE,123,2.0,16.0,58,0.00,,---,0.00,VWS V14.01,2013-05-04 14:46:00,
2013-05-04 11:01:00,64.1,49.0,30.01,ESE,109,5.0,13.0,58,0.00,,---,0.00,VWS V14.01,2013-05-04 15:01:00,
2013-05-04 11:16:00,64.8,49.7,30.02,ESE,105,5.0,13.0,58,0.00,,---,0.00,VWS V14.01,2013-05-04 15:16:00,
2013-05-04 11:31:00,65.4,48.8,30.01,ESE,111,5.0,10.0,55,0.00,,---,0.00,VWS V14.01,2013-05-04 15:31:00,
2013-05-04 11:46:00,65.6,49.5,30.01,ESE,103,3.0,10.0,56,0.00,,---,0.00,VWS V14.01,2013-05-04 15:46:00,
2013-05-04 12:01:00,65.6,49.0,30.01,ENE,74,7.0,14.0,55,0.00,,---,0.00,VWS V14.01,2013-05-04 16:01:00,
2013-05-04 12:16:00,66.5,49.4,30.01,East,101,10.0,13.0,54,0.00,,---,0.00,VWS V14.01,2013-05-04 16:16:00,
2013-05-04 12:31:00,66.6,48.4,30.01,SE,140,4.0,15.0,52,0.00,,---,0.00,VWS V14.01,2013-05-04 16:31:00,
2013-05-04 12:46:00,66.8,48.6,30.01,East,101,3.0,16.0,52,0.00,,---,0.00,VWS V14.01,2013-05-04 16:46:00,
2013-05-04 13:01:00,67.4,49.2,30.01,East,94,6.0,16.0,52,0.00,,---,0.00,VWS V14.01,2013-05-04 17:01:00,
2013-05-04 13:16:00,67.4,50.2,30.00,East,79,8.0,13.0,54,0.00,,---,0.00,VWS V14.01,2013-05-04 17:16:00,
2013-05-04 13:31:00,67.3,49.6,30.00,East,93,6.0,14.0,53,0.00,,---,0.00,VWS V14.01,2013-05-04 17:31:00,
2013-05-04 13:46:00,67.7,51.0,30.00,ESE,109,12.0,15.0,55,0.00,,---,0.00,VWS V14.01,2013-05-04 17:46:00,
2013-05-04 14:01:00,68.1,50.3,29.99,East,98,3.0,13.0,53,0.00,,---,0.00,VWS V14.01,2013-05-04 18:01:00,
2013-05-04 14:16:00,68.7,49.3,29.99,NE,53,10.0,16.0,50,0.00,,---,0.00,VWS V14.01,2013-05-04 18:16:00,
2013-05-04 14:31:00,68.4,49.1,29.99,East,84,6.0,17.0,50,0.00,,---,0.00,VWS V14.01,2013-05-04 18:31:00,
2013-05-04 14:46:00,68.6,48.7,29.98,East,88,11.0,18.0,49,0.00,,---,0.00,VWS V14.01,2013-05-04 18:46:00,
2013-05-04 15:01:00,68.6,47.6,29.98,ENE,57,4.0,17.0,47,0.00,,---,0.00,VWS V14.01,2013-05-04 19:01:00,
2013-05-04 15:16:00,68.4,45.0,29.98,East,96,9.0,17.0,43,0.00,,---,0.00,VWS V14.01,2013-05-04 19:16:00,
2013-05-04 15:31:00,68.6,44.6,29.98,ESE,109,10.0,18.0,42,0.00,,---,0.00,VWS V14.01,2013-05-04 19:31:00,
2013-05-04 15:46:00,68.9,44.2,29.97,East,82,7.0,21.0,41,0.00,,---,0.00,VWS V14.01,2013-05-04 19:46:00,
2013-05-04 16:01:00,69.3,44.6,29.97,ESE,107,16.0,18.0,41,0.00,,---,0.00,VWS V14.01,2013-05-04 20:01:00,
2013-05-04 16:16:00,69.2,43.9,29.97,ESE,111,9.0,17.0,40,0.00,,---,0.00,VWS V14.01,2013-05-04 20:16:00,
2013-05-04 16:31:00,69.1,43.8,29.97,East,95,8.0,19.0,40,0.00,,---,0.00,VWS V14.01,2013-05-04 20:31:00,
2013-05-04 16:46:00,69.7,45.0,29.97,East,79,5.0,15.0,41,0.00,,---,0.00,VWS V14.01,2013-05-04 20:46:00,
2013-05-04 17:01:00,70.5,45.7,29.96,ESE,117,4.0,16.0,41,0.00,,---,0.00,VWS V14.01,2013-05-04 21:01:00,
2013-05-04 17:16:00,70.7,42.5,29.97,East,89,11.0,16.0,36,0.00,,---,0.00,VWS V14.01,2013-05-04 21:16:00,
2013-05-04 17:31:00,70.9,40.4,29.97,ESE,107,12.0,17.0,33,0.00,,---,0.00,VWS V14.01,2013-05-04 21:31:00,
2013-05-04 17:46:00,70.4,40.7,29.97,East,87,3.0,16.0,34,0.00,,---,0.00,VWS V14.01,2013-05-04 21:46:00,
2013-05-04 18:01:00,70.7,41.0,29.97,ESE,117,9.0,16.0,34,0.00,,---,0.00,VWS V14.01,2013-05-04 22:01:00,
2013-05-04 18:16:00,70.6,40.9,29.97,ESE,105,12.0,17.0,34,0.00,,---,0.00,VWS V14.01,2013-05-04 22:16:00,
2013-05-04 18:31:00,70.2,41.3,29.97,ESE,104,7.0,17.0,35,0.00,,---,0.00,VWS V14.01,2013-05-04 22:31:00,
2013-05-04 18:46:00,70.3,41.4,29.97,East,89,5.0,14.0,35,0.00,,---,0.00,VWS V14.01,2013-05-04 22:46:00,
2013-05-04 19:01:00,70.1,41.9,29.97,ENE,69,7.0,13.0,36,0.00,,---,0.00,VWS V14.01,2013-05-04 23:01:00,
2013-05-04 19:16:00,69.6,40.8,29.98,East,96,9.0,16.0,35,0.00,,---,0.00,VWS V14.01,2013-05-04 23:16:00,
2013-05-04 19:31:00,68.7,40.7,29.98,East,100,5.0,15.0,36,0.00,,---,0.00,VWS V14.01,2013-05-04 23:31:00,
2013-05-04 19:46:00,67.6,39.7,29.99,SE,131,11.0,17.0,36,0.00,,---,0.00,VWS V14.01,2013-05-04 23:46:00,
2013-05-04 20:01:00,67.4,40.2,29.99,East,93,8.0,14.0,37,0.00,,---,0.00,VWS V14.01,2013-05-05 00:01:00,
2013-05-04 20:16:00,66.9,40.5,30.00,ESE,105,7.0,12.0,38,0.00,,---,0.00,VWS V14.01,2013-05-05 00:16:00,
2013-05-04 20:31:00,66.1,40.5,30.00,ESE,107,2.0,10.0,39,0.00,,---,0.00,VWS V14.01,2013-05-05 00:31:00,
2013-05-04 20:46:00,65.3,40.4,30.01,East,80,0.0,8.0,40,0.00,,---,0.00,VWS V14.01,2013-05-05 00:46:00,
2013-05-04 21:01:00,64.3,40.1,30.01,ENE,76,0.0,7.0,41,0.00,,---,0.00,VWS V14.01,2013-05-05 01:01:00,
2013-05-04 21:16:00,63.4,40.5,30.01,ENE,76,1.0,3.0,43,0.00,,---,0.00,VWS V14.01,2013-05-05 01:16:00,
2013-05-04 21:31:00,62.6,41.0,30.02,ENE,76,1.0,3.0,45,0.00,,---,0.00,VWS V14.01,2013-05-05 01:31:00,
2013-05-04 21:46:00,61.8,40.8,30.01,ENE,76,0.0,3.0,46,0.00,,---,0.00,VWS V14.01,2013-05-05 01:46:00,
2013-05-04 22:01:00,61.1,41.3,30.02,ENE,76,0.0,4.0,48,0.00,,---,0.00,VWS V14.01,2013-05-05 02:01:00,
2013-05-04 22:16:00,60.4,41.2,30.02,ENE,76,0.0,3.0,49,0.00,,---,0.00,VWS V14.01,2013-05-05 02:16:00,
2013-05-04 22:31:00,59.6,41.5,30.02,ENE,76,1.0,2.0,51,0.00,,---,0.00,VWS V14.01,2013-05-05 02:31:00,
2013-05-04 22:46:00,59.0,41.9,30.02,ENE,76,1.0,3.0,53,0.00,,---,0.00,VWS V14.01,2013-05-05 02:46:00,
2013-05-04 23:01:00,59.5,42.9,30.02,ENE,76,2.0,5.0,54,0.00,,---,0.00,VWS V14.01,2013-05-05 03:01:00,
2013-05-04 23:16:00,59.6,43.4,30.02,ENE,76,2.0,4.0,55,0.00,,---,0.00,VWS V14.01,2013-05-05 03:16:00,
2013-05-04 23:31:00,59.3,43.6,30.01,ENE,68,1.0,7.0,56,0.00,,---,0.00,VWS V14.01,2013-05-05 03:31:00,
2013-05-04 23:46:00,59.7,44.0,30.01,East,101,5.0,11.0,56,0.00,,---,0.00,VWS V14.01,2013-05-05 03:46:00,